TimeEDT,TemperatureF,Dew PointF,Humidity,Sea Level PressureIn,VisibilityMPH,Wind Direction,Wind SpeedMPH,Gust SpeedMPH,PrecipitationIn,Events,Conditions,WindDirDegrees,DateUTC
12:53 AM,42.1,28.0,58,30.10,10.0,South,6.9,-,N/A,,Clear,180,2012-10-09 04:53:00
1:53 AM,43.0,28.0,56,30.09,10.0,South,8.1,-,N/A,,Clear,190,2012-10-09 05:53:00
2:53 AM,43.0,28.0,56,30.09,10.0,South,6.9,-,N/A,,Clear,190,2012-10-09 06:53:00
4:53 AM,41.0,28.0,60,30.08,10.0,South,5.8,-,N/A,,Clear,190,2012-10-09 08:53:00
5:53 AM,41.0,28.9,62,30.08,10.0,South,5.8,-,N/A,,Partly Cloudy,190,2012-10-09 09:53:00
6:53 AM,42.1,30.0,62,30.07,10.0,South,8.1,-,N/A,,Clear,190,2012-10-09 10:53:00
7:53 AM,42.1,30.0,62,30.07,10.0,South,8.1,-,N/A,,Clear,180,2012-10-09 11:53:00
8:53 AM,43.0,30.9,62,30.07,10.0,South,9.2,-,N/A,,Clear,190,2012-10-09 12:53:00
9:53 AM,51.1,32.0,48,30.06,10.0,SSW,11.5,19.6,N/A,,Clear,200,2012-10-09 13:53:00
10:53 AM,55.0,33.1,43,30.03,10.0,SW,13.8,26.5,N/A,,Clear,220,2012-10-09 14:53:00
11:53 AM,57.0,34.0,42,30.02,10.0,SW,17.3,29.9,N/A,,Clear,220,2012-10-09 15:53:00
12:53 PM,60.1,34.0,38,29.99,10.0,SSW,17.3,27.6,N/A,,Clear,200,2012-10-09 16:53:00
1:53 PM,62.1,35.1,37,29.96,10.0,SSW,16.1,27.6,N/A,,Clear,200,2012-10-09 17:53:00
2:53 PM,63.0,35.1,35,29.92,10.0,SSW,15.0,26.5,N/A,,Clear,200,2012-10-09 18:53:00
3:53 PM,63.0,35.1,35,29.91,10.0,SSW,12.7,23.0,N/A,,Clear,200,2012-10-09 19:53:00
4:53 PM,61.0,34.0,36,29.88,10.0,South,13.8,-,N/A,,Clear,180,2012-10-09 20:53:00
5:53 PM,61.0,35.1,38,29.88,10.0,SSW,11.5,25.3,N/A,,Clear,210,2012-10-09 21:53:00
6:53 PM,59.0,35.1,41,29.87,10.0,South,11.5,18.4,N/A,,Clear,180,2012-10-09 22:53:00
7:53 PM,55.9,35.1,45,29.88,10.0,South,8.1,-,N/A,,Clear,190,2012-10-09 23:53:00
8:53 PM,55.0,35.1,47,29.87,10.0,South,10.4,-,N/A,,Clear,190,2012-10-10 00:53:00
9:53 PM,55.9,35.1,45,29.85,10.0,South,10.4,16.1,N/A,,Clear,190,2012-10-10 01:53:00
10:53 PM,55.0,35.1,47,29.82,10.0,South,11.5,-,N/A,,Clear,190,2012-10-10 02:53:00
11:53 PM,55.0,36.0,49,29.80,10.0,South,11.5,20.7,N/A,,Clear,190,2012-10-10 03:53:00